| time (UTC) | temp F | wind direction | speed knots | gust knots | rain 1hr in | rain 24hr in | rain mn in | humidity % | barometer mb |
| 20260905174558 | 80 | 271 | 0.9 | 3.5 | 0.00 | 0.05 | 0.00 | 56 | 1010.8 |
| 20260905173057 | 79 | 226 | 0.9 | 7.8 | 0.00 | 0.05 | 0.00 | 56 | 1010.9 |
| 20260905171554 | 78 | 248 | 0.0 | 4.3 | 0.00 | 0.05 | 0.00 | 63 | 1011.0 |
| 20260905170055 | 78 | 19 | 0.0 | 4.3 | 0.00 | 0.05 | 0.00 | 59 | 1011.1 |
| 20260905164552 | 79 | 52 | 0.0 | 2.6 | 0.00 | 0.05 | 0.00 | 60 | 1011.1 |
| 20260905163050 | 78 | 38 | 0.0 | 5.2 | 0.00 | 0.05 | 0.00 | 60 | 1011.4 |
| 20260905161549 | 78 | 355 | 0.9 | 4.3 | 0.00 | 0.05 | 0.00 | 61 | 1011.6 |
| 20260905160115 | 77 | 275 | 0.0 | 4.3 | 0.00 | 0.05 | 0.00 | 64 | 1011.7 |
| 20260905154550 | 77 | 32 | 0.0 | 4.3 | 0.00 | 0.05 | 0.00 | 63 | 1011.7 |
| 20260905153044 | 77 | 113 | 0.0 | 2.6 | 0.00 | 0.05 | 0.00 | 62 | 1011.7 |
| 20260905151542 | 76 | 248 | 0.9 | 4.3 | 0.00 | 0.05 | 0.00 | 66 | 1011.6 |
| 20260905150041 | 76 | 84 | 0.0 | 3.5 | 0.00 | 0.05 | 0.00 | 66 | 1011.6 |
| 20260905144538 | 76 | 59 | 0.0 | 3.5 | 0.00 | 0.05 | 0.00 | 68 | 1011.5 |
| 20260905143034 | 75 | 84 | 0.0 | 1.7 | 0.00 | 0.05 | 0.00 | 73 | 1011.3 |
| 20260905141537 | 74 | 300 | 0.0 | 4.3 | 0.00 | 0.05 | 0.00 | 74 | 1011.4 |
| 20260905140030 | 74 | 337 | 0.0 | 2.6 | 0.00 | 0.05 | 0.00 | 76 | 1011.5 |
| 20260905134529 | 73 | 37 | 0.0 | 3.5 | 0.00 | 0.05 | 0.00 | 78 | 1011.6 |
| 20260905133024 | 72 | 241 | 0.9 | 4.3 | 0.00 | 0.05 | 0.00 | 79 | 1011.5 |
| 20260905131522 | 71 | 315 | 0.0 | 2.6 | 0.00 | 0.05 | 0.00 | 85 | 1011.4 |
| 20260905130021 | 69 | 229 | 0.0 | 1.7 | 0.00 | 0.05 | 0.00 | 91 | 1011.3 |
| 20260905124524 | 68 | 259 | 0.0 | 0.9 | 0.00 | 0.05 | 0.00 | 95 | 1011.4 |
| 20260905123019 | 67 | 250 | 0.0 | 0.9 | 0.00 | 0.05 | 0.00 | 96 | 1011.4 |
| 20260905121518 | 67 | 250 | 0.0 | 0.0 | 0.00 | 0.05 | 0.00 | 97 | 1011.5 |
| 20260905120018 | 67 | 250 | 0.0 | 0.0 | 0.00 | 0.05 | 0.00 | 97 | 1011.3 |
| 20260905114518 | 67 | 250 | 0.0 | 0.9 | 0.00 | 0.05 | 0.00 | 97 | 1011.5 |
| 20260905113015 | 67 | 250 | 0.0 | 0.0 | 0.00 | 0.05 | 0.00 | 98 | 1011.3 |
| 20260905111514 | 67 | 250 | 0.0 | 0.0 | 0.00 | 0.05 | 0.00 | 97 | 1011.1 |
| 20260905110013 | 67 | 250 | 0.0 | 0.0 | 0.00 | 0.05 | 0.00 | 97 | 1011.1 |
| 20260905104513 | 67 | 250 | 0.0 | 0.0 | 0.00 | 0.05 | 0.00 | 97 | 1010.8 |
| 20260905103018 | 67 | 250 | 0.0 | 0.0 | 0.00 | 0.05 | 0.00 | 97 | 1010.5 |
| 20260905101511 | 68 | 250 | 0.0 | 0.0 | 0.00 | 0.05 | 0.00 | 97 | 1010.4 |
| 20260905100009 | 68 | 250 | 0.0 | 0.0 | 0.00 | 0.05 | 0.00 | 97 | 1010.4 |
| 20260905094511 | 68 | 250 | 0.0 | 0.0 | 0.00 | 0.05 | 0.00 | 97 | 1010.3 |
| 20260905093009 | 68 | 250 | 0.0 | 0.0 | 0.00 | 0.05 | 0.00 | 97 | 1010.3 |
| 20260905091515 | 68 | 250 | 0.0 | 0.0 | 0.00 | 0.05 | 0.00 | 97 | 1010.3 |
| 20260905090008 | 69 | 250 | 0.0 | 0.0 | 0.00 | 0.05 | 0.00 | 97 | 1010.3 |
| 20260905084507 | 68 | 250 | 0.0 | 0.0 | 0.00 | 0.05 | 0.00 | 97 | 1010.3 |
| 20260905083007 | 68 | 250 | 0.0 | 0.0 | 0.00 | 0.05 | 0.00 | 97 | 1010.2 |
| 20260905081508 | 68 | 250 | 0.0 | 0.0 | 0.00 | 0.05 | 0.00 | 97 | 1010.3 |
| 20260905080006 | 69 | 250 | 0.0 | 0.0 | 0.00 | 0.05 | 0.00 | 97 | 1010.3 |
| 20260905074511 | 69 | 250 | 0.0 | 0.0 | 0.00 | 0.05 | 0.00 | 98 | 1010.3 |
| 20260905073004 | 69 | 250 | 0.0 | 0.9 | 0.00 | 0.05 | 0.00 | 98 | 1010.2 |
| 20260905071504 | 68 | 150 | 0.0 | 0.0 | 0.00 | 0.05 | 0.00 | 98 | 1010.2 |
| 20260905070004 | 68 | 150 | 0.0 | 0.0 | 0.00 | 0.05 | 0.00 | 98 | 1010.2 |
| 20260905064502 | 68 | 150 | 0.0 | 0.0 | 0.00 | 0.05 | 0.00 | 98 | 1010.4 |
| 20260905063101 | 68 | 150 | 0.0 | 0.0 | 0.00 | 0.05 | 0.00 | 97 | 1010.5 |
| 20260905061622 | 68 | 150 | 0.0 | 0.0 | 0.00 | 0.05 | 0.00 | 97 | 1010.5 |
| 20260905060112 | 68 | 150 | 0.0 | 0.0 | 0.00 | 0.05 | 0.00 | 97 | 1010.6 |
| 20260905054556 | 68 | 150 | 0.0 | 0.0 | 0.00 | 0.05 | 0.00 | 97 | 1010.6 |
| 20260905053054 | 68 | 150 | 0.0 | 0.0 | 0.00 | 0.05 | 0.00 | 97 | 1010.7 |
| 20260905051551 | 69 | 150 | 0.0 | 0.0 | 0.00 | 0.05 | 0.00 | 96 | 1010.8 |
| 20260905050049 | 70 | 150 | 0.0 | 0.0 | 0.00 | 0.05 | 0.00 | 96 | 1010.9 |
| 20260905044547 | 71 | 138 | 0.0 | 0.9 | 0.04 | 0.05 | 0.00 | 96 | 1010.9 |
| 20260905043044 | 71 | 74 | 0.0 | 0.0 | 0.05 | 0.05 | 0.00 | 95 | 1011.0 |
| 20260905041541 | 72 | 74 | 0.0 | 0.0 | 0.05 | 0.05 | 0.00 | 94 | 1011.0 |
| 20260905040040 | 72 | 26 | 0.0 | 2.6 | 0.05 | 0.05 | 0.00 | 94 | 1011.2 |
| 20260905034547 | 73 | 73 | 0.0 | 1.7 | 0.00 | 0.05 | 0.00 | 95 | 1011.4 |
| 20260905033038 | 73 | 277 | 0.0 | 0.0 | 0.00 | 0.05 | 0.00 | 95 | 1011.3 |
| 20260905031538 | 73 | 277 | 0.0 | 0.0 | 0.00 | 0.05 | 0.00 | 95 | 1011.0 |
| 20260905030040 | 73 | 277 | 0.0 | 0.0 | 0.00 | 0.05 | 0.00 | 95 | 1010.9 |
| 20260905024537 | 73 | 277 | 0.0 | 0.0 | 0.00 | 0.05 | 0.00 | 95 | 1010.8 |
| 20260905023035 | 73 | 277 | 0.0 | 0.0 | 0.00 | 0.05 | 0.00 | 95 | 1010.7 |
| 20260905021536 | 73 | 277 | 0.0 | 0.0 | 0.00 | 0.05 | 0.00 | 94 | 1010.7 |
| 20260905020040 | 73 | 277 | 0.0 | 0.0 | 0.00 | 0.05 | 0.00 | 94 | 1010.7 |
| 20260905014538 | 74 | 277 | 0.0 | 0.0 | 0.00 | 0.05 | 0.00 | 94 | 1010.8 |
| 20260905013034 | 74 | 277 | 0.0 | 0.0 | 0.00 | 0.05 | 0.00 | 94 | 1010.6 |
| 20260905011541 | 74 | 277 | 0.0 | 0.0 | 0.00 | 0.05 | 0.00 | 93 | 1010.7 |
| 20260905010034 | 74 | 277 | 0.0 | 0.0 | 0.00 | 0.05 | 0.00 | 93 | 1010.7 |
| 20260905004539 | 74 | 277 | 0.0 | 0.0 | 0.00 | 0.05 | 0.00 | 93 | 1010.8 |
| 20260905003034 | 75 | 277 | 0.0 | 0.0 | 0.00 | 0.05 | 0.00 | 92 | 1010.6 |
| 20260905001546 | 75 | 277 | 0.0 | 0.0 | 0.00 | 0.05 | 0.00 | 92 | 1010.6 |
| 20260905000032 | 75 | 277 | 0.0 | 0.0 | 0.00 | 0.05 | 0.00 | 91 | 1010.5 |
| 20260904234538 | 76 | 277 | 0.0 | 0.0 | 0.00 | 0.05 | 0.00 | 89 | 1010.3 |
| 20260904233040 | 77 | 277 | 0.0 | 0.0 | 0.00 | 0.05 | 0.00 | 87 | 1010.2 |
| 20260904231538 | 78 | 277 | 0.0 | 0.9 | 0.00 | 0.05 | 0.00 | 83 | 1010.1 |
| 20260904230028 | 79 | 277 | 0.0 | 0.0 | 0.00 | 0.05 | 0.00 | 80 | 1010.3 |
| 20260904224528 | 80 | 277 | 0.0 | 0.0 | 0.00 | 0.05 | 0.00 | 77 | 1010.4 |
| 20260904223026 | 80 | 248 | 0.9 | 2.6 | 0.00 | 0.05 | 0.00 | 76 | 1010.4 |
| 20260904221526 | 80 | 209 | 0.0 | 1.7 | 0.00 | 0.05 | 0.00 | 76 | 1010.6 |
| 20260904220026 | 80 | 240 | 0.0 | 4.3 | 0.00 | 0.05 | 0.00 | 76 | 1010.7 |
| 20260904214525 | 81 | 224 | 0.0 | 1.7 | 0.00 | 0.05 | 0.00 | 77 | 1010.7 |
| 20260904213027 | 81 | 261 | 0.0 | 0.9 | 0.00 | 0.05 | 0.00 | 77 | 1010.9 |
| 20260904211524 | 81 | 261 | 0.0 | 0.9 | 0.00 | 0.05 | 0.00 | 75 | 1010.8 |
| 20260904210024 | 81 | 261 | 0.0 | 1.7 | 0.00 | 0.05 | 0.00 | 72 | 1010.9 |
| 20260904204523 | 82 | 267 | 0.0 | 4.3 | 0.00 | 0.05 | 0.00 | 69 | 1010.6 |
| 20260904203022 | 83 | 257 | 0.0 | 3.5 | 0.00 | 0.05 | 0.00 | 69 | 1010.5 |
| 20260904201521 | 84 | 240 | 0.9 | 7.0 | 0.00 | 0.05 | 0.00 | 66 | 1010.4 |
| 20260904200022 | 84 | 266 | 3.5 | 9.6 | 0.00 | 0.05 | 0.00 | 63 | 1010.8 |
| 20260904194520 | 84 | 258 | 0.9 | 9.6 | 0.00 | 0.05 | 0.00 | 63 | 1011.1 |
| 20260904193018 | 84 | 178 | 3.5 | 9.6 | 0.00 | 0.05 | 0.00 | 64 | 1011.4 |
| 20260904191518 | 84 | 234 | 3.5 | 11.3 | 0.00 | 0.05 | 0.00 | 63 | 1011.5 |
| 20260904190024 | 84 | 245 | 2.6 | 8.7 | 0.00 | 0.05 | 0.00 | 65 | 1011.7 |
| 20260904184517 | 84 | 250 | 1.7 | 12.2 | 0.00 | 0.05 | 0.00 | 66 | 1011.8 |
| 20260904183023 | 84 | 14 | 2.6 | 13.0 | 0.00 | 0.05 | 0.00 | 65 | 1012.0 |
| 20260904181527 | 83 | 279 | 1.7 | 9.6 | 0.00 | 0.05 | 0.00 | 67 | 1012.0 |
| 20260904180015 | 84 | 258 | 2.6 | 9.6 | 0.00 | 0.05 | 0.00 | 65 | 1012.1 |